[Iaude] MPEC G144: 2024 GW2 [a=1.37,e=0.18,i=37.2,H=23.6]

mpec at cfa.harvard.edu mpec at cfa.harvard.edu
Thu Apr 11 00:27:38 EDT 2024


M.P.E.C. 2024-G144                               Issued 2024 April 11, 04:26 UT

     The Minor Planet Electronic Circulars contain information on unusual
         minor planets, routine data on comets and natural satellites,
         and occasional editorial announcements.  They are published
    on behalf of Division F of the International Astronomical Union by the
          Minor Planet Center, Smithsonian Astrophysical Observatory,
                          Cambridge, MA 02138, U.S.A.
			  
             Prepared using the Tamkin Foundation Computer Network

                              MPC at CFA.HARVARD.EDU
            URL https://www.minorplanetcenter.net/    ISSN 1523-6714

                                    2024 GW2                                    


Observations:
     K24G02W* C2024 04 09.45526913 53 13.845-21 50 02.47         21.20wXEG144F51
     K24G02W  C2024 04 09.46671313 53 07.282-21 52 02.10               VEG144F51
     K24G02W  C2024 04 09.47762313 53 01.016-21 53 54.85         20.92wXEG144F51
     K24G02W  C2024 04 09.48884913 52 54.576-21 55 51.21         20.68GVEG144F51
     K24G02W 3C2024 04 10.35410913 44 46.799-24 25 38.47         20.79GVEG144T14
     K24G02W 3C2024 04 10.42441513 44 04.358-24 37 52.46         20.76GVEG144T14
     K24G02W 3C2024 04 10.42539413 44 03.768-24 38 02.60         20.73GVEG144T14
     K24G02W 3C2024 04 10.42637113 44 03.174-24 38 12.83         20.78GVEG144T14
     K24G02W 3C2024 04 10.42735113 44 02.581-24 38 22.99         20.76GVEG144T14
     K24G02W |C2024 04 11.14049013 36 57.250-26 40 54.00         20.8 GVEG144807
     K24G02W |C2024 04 11.14716013 36 53.060-26 42 03.70         20.6 GVEG144807
     K24G02W |C2024 04 11.15369013 36 48.920-26 43 11.30         20.5 GVEG144807

Observer details:
807 Cerro Tololo Observatory, La Serena.  Observers T. Linder, R. Holmes.
    0.61-m f/6.8 Ritchey-Chretien + CCD.
F51 Pan-STARRS 1, Haleakala.  Observers J. Herman, T. Lowe, P. Minguez, A.
    Schultz, I. Smith.  Measurers K. Chambers, T. de Boer, J. Fairlamb, H.
    Gao, M. Huber, C.-C. Lin, E. Magnier, Y. Ramanjooloo, R. Wainscoat, R.
    Weryk.  1.8-m Ritchey-Chretien + CCD.
T14 Canada-France-Hawaii Telescope, Maunakea.  Observers R. Wainscoat, A.
    Acohido, T. Burdullis.  Measurers R. Weryk, R. Wainscoat.  3.6-m f/4.1
    reflector + CCD.

Orbital elements:
2024 GW2                                                 Earth MOID = 0.1712 AU
Epoch 2024 Mar. 31.0 TT = JDT 2460400.5                 MPC                     
M 324.52960              (2000.0)            P               Q                  
n   0.61530543     Peri.  224.34234     -0.48211159     +0.85149202             
a   1.3690171      Node    19.95851     -0.53630728     -0.10069680             
e   0.1772475      Incl.   37.16921     -0.69277912     -0.51460809             
P   1.60           H   23.61          G   0.15           U   9                  
Residuals in seconds of arc
240409 F51  0.5+  0.5+    240410 T14  0.0   0.0     240410 T14  0.0   0.0
240409 F51  0.2+  0.4-    240410 T14  0.1-  0.0     240411 807  0.1+  0.2+
240409 F51  0.1-  0.1-    240410 T14  0.0   0.0     240411 807  0.2+  0.3-
240409 F51  0.4-  0.2-    240410 T14  0.0   0.0     240411 807  0.1-  0.2-

Ephemeris:
2024 GW2                 a,e,i = 1.37, 0.18, 37                  q = 1.1264
Date    TT    R. A. (2000) Decl.     Delta      r    Elong.  Phase     V
2024 03 12    15 37 48.9 +21 01 44   0.4044  1.2317   117.1    45.9    23.8
...
2024 03 27    15 11 32.8 +07 52 48   0.2564  1.1978   136.9    34.7    22.5
...
2024 04 04    14 34 50.2 -07 09 39   0.1976  1.1817   154.6    21.2    21.5
...
2024 04 10    13 48 09.2 -23 23 38   0.1757  1.1707   162.6    14.8    21.0
2024 04 11    13 38 21.7 -26 16 38   0.1745  1.1689   161.4    15.9    21.0
2024 04 12    13 27 58.7 -29 07 45   0.1742  1.1672   159.5    17.5    21.1
...
2024 04 18    12 15 02.6 -43 46 25   0.1879  1.1576   141.8    32.5    21.7
...
2024 04 26    10 32 26.2 -53 19 15   0.2368  1.1465   121.1    48.7    22.6
...
2024 05 11    08 39 51.4 -55 34 52   0.3625  1.1320   100.2    61.4    23.9

A. U. Tomatic                (C) Copyright 2024 MPC           M.P.E.C. 2024-G144





More information about the Iaude mailing list